User: anonymous   Login
Location: Lodz
(51.7500°N, 19.4670°E)
Time: 17:00:59
(UTC+02:00)
Language:

ISS - Orbit

View from above orbital plane
View from above orbital plane
View from above satellite
View from above satellite

Ground track
Ground track

The orbit data is extracted from the following two-line orbital elements,

1 25544U 98067A   24113.34884220  .00032660  00000-0  56494-3 0  9990
2 25544  51.6393 232.2772 0004631  92.0510   3.0658 15.50634351449883
Epoch (UTC): 22 April 2024 08:22:19
Eccentricity: 0.0004631
inclination: 51.6393°
perigee height: 412 km
apogee height: 418 km
right ascension of ascending node: 232.2772°
argument of perigee: 92.0510°
revolutions per day: 15.50634351
mean anomaly at epoch: 3.0658°
orbit number at epoch: 44988

The dashed part of the orbit path shows where the satellite is in the earth's shadow,  

DLR